Weather History for Cook, MN

Change the Weather History Date:

Wednesday, December 4, 2013

  Actual Average Record
Temperature  
Mean Temperature 16 °F -  
Max Temperature 17 °F 26 °F 41 °F (2001)
Min Temperature 14 °F 11 °F -16 °F (2002)
Degree Days  
Heating Degree Days 50    
Moisture  
Dew Point 13 °F    
Average Humidity 88    
Maximum Humidity 93    
Minimum Humidity 79    
Precipitation  
Precipitation 0.05 in - - ()
Sea Level Pressure  
Sea Level Pressure 29.69 in    
Wind  
Wind Speed 6 mph (NE)    
Max Wind Speed 10 mph    
Max Gust Speed 21 mph    
Visibility 3 miles    
Events Snow    
Averages and records for this station are not official NWS values.
T = Trace of Precipitation, MM = Missing Value Source: NWS Daily Summary

Daily Weather History Graph

Daily Weather History Graph

Search for Another Location

Airport:

Trip Planner

Search our weather history database for the weather conditions in past years. The results will help you decide how hot, cold, wet, or windy it might be!

Date:

Astronomy

Dec. 04, 2013 Rise Set
Actual Time 7:42 AM CST 4:19 PM CST
Civil Twilight 7:07 AM CST 4:54 PM CST
Nautical Twilight 6:28 AM CST 5:33 PM CST
Astronomical Twilight 5:50 AM CST 6:11 PM CST
Moon 9:08 AM CST (12/4) 6:33 PM CST (12/4)
Length of Visible Light 9h 47m
Length of Day
8h 36m
Waxing Crescent, 4% of the Moon is Illuminated
Dec 4
Waxing Crescent
Dec 9
First Quarter
Dec 17
Full
Dec 25
Last Quarter
Jan 1
New

Hourly Weather History & Observations

Time (CST) Temp. Windchill Dew Point Humidity Pressure Visibility Wind Dir Wind Speed Gust Speed Precip Events Conditions
12:17 AM 15.8 °F 6.1 °F 12.2 °F 86% 29.94 in 3.0 mi ENE 6.9 mph - N/A Snow Light Snow
12:36 AM 15.8 °F 6.1 °F 12.2 °F 86% 29.93 in 2.5 mi NE 6.9 mph - N/A Snow Light Snow
12:57 AM 15.8 °F 10.2 °F 12.2 °F 86% 29.95 in 2.5 mi NE 3.5 mph - N/A Snow Light Snow
1:16 AM 15.8 °F 8.6 °F 12.2 °F 86% 29.94 in 4.0 mi ENE 4.6 mph - N/A Snow Light Snow
1:36 AM 15.8 °F 7.2 °F 10.4 °F 79% 29.94 in 4.0 mi ENE 5.8 mph - N/A Snow Light Snow
1:57 AM 14.0 °F 5.1 °F 10.4 °F 86% 29.93 in 3.0 mi ENE 5.8 mph - N/A Snow Light Snow
2:16 AM 14.0 °F 6.5 °F 10.4 °F 86% 29.93 in 3.0 mi ENE 4.6 mph - N/A Snow Light Snow
2:36 AM 14.0 °F 5.1 °F 10.4 °F 86% 29.92 in 2.5 mi NE 5.8 mph - N/A Snow Light Snow
2:57 AM 14.0 °F 5.1 °F 10.4 °F 86% 29.93 in 2.5 mi NE 5.8 mph - N/A Snow Light Snow
3:16 AM 14.0 °F 6.5 °F 10.4 °F 86% 29.92 in 4.0 mi NE 4.6 mph - N/A Snow Light Snow
3:36 AM 14.0 °F 5.1 °F 10.4 °F 86% 29.91 in 7.0 mi NE 5.8 mph - N/A Snow Light Snow
3:57 AM 14.0 °F 6.5 °F 10.4 °F 86% 29.91 in 10.0 mi ENE 4.6 mph - N/A Snow Light Snow
4:16 AM 14.0 °F 6.5 °F 10.4 °F 86% 29.90 in 10.0 mi NE 4.6 mph - N/A   Overcast
4:36 AM 14.0 °F 3.9 °F 10.4 °F 86% 29.90 in 10.0 mi ENE 6.9 mph - N/A   Overcast
4:57 AM 14.0 °F 6.5 °F 10.4 °F 86% 29.89 in 10.0 mi NE 4.6 mph - N/A   Overcast
5:16 AM 15.8 °F 7.2 °F 10.4 °F 79% 29.88 in 4.0 mi NE 5.8 mph - N/A Snow Light Snow
5:36 AM 14.0 °F 3.9 °F 10.4 °F 86% 29.86 in 2.0 mi ENE 6.9 mph - N/A Snow Light Snow
5:57 AM 14.0 °F 5.1 °F 12.2 °F 93% 29.87 in 2.0 mi ENE 5.8 mph - N/A Snow Light Snow
6:16 AM 15.8 °F 7.2 °F 12.2 °F 86% 29.88 in 2.5 mi NE 5.8 mph - N/A Snow Light Snow
6:36 AM 15.8 °F 6.1 °F 12.2 °F 86% 29.85 in 2.0 mi ENE 6.9 mph - N/A Snow Light Snow
6:57 AM 15.8 °F 7.2 °F 12.2 °F 86% 29.86 in 1.8 mi NE 5.8 mph - N/A Snow Light Snow
7:16 AM 15.8 °F 7.2 °F 12.2 °F 86% 29.84 in 1.5 mi NE 5.8 mph - N/A Snow Light Snow
7:36 AM 15.8 °F 8.6 °F 12.2 °F 86% 29.84 in 2.5 mi ENE 4.6 mph - N/A Snow Light Snow
7:57 AM 15.8 °F 7.2 °F 12.2 °F 86% 29.84 in 1.5 mi NE 5.8 mph - N/A Snow Light Snow
8:16 AM 15.8 °F 10.2 °F 12.2 °F 86% 29.85 in 1.2 mi NE 3.5 mph - N/A Snow Light Snow
8:37 AM 15.8 °F 8.6 °F 12.2 °F 86% 29.83 in 1.0 mi NE 4.6 mph - 0.01 in Snow Light Snow
8:57 AM 15.8 °F 6.1 °F 12.2 °F 86% 29.81 in 1.0 mi ENE 6.9 mph - N/A Snow Light Snow
9:16 AM 15.8 °F 6.1 °F 12.2 °F 86% 29.80 in 0.8 mi ENE 6.9 mph - N/A Snow Light Snow
9:37 AM 15.8 °F 5.1 °F 14.0 °F 93% 29.79 in 0.8 mi NE 8.1 mph - N/A Snow Light Snow
9:57 AM 17.6 °F 8.2 °F 14.0 °F 86% 29.78 in 1.0 mi ENE 6.9 mph - N/A Snow Light Snow
10:16 AM 17.6 °F 6.4 °F 14.0 °F 86% 29.76 in 1.2 mi ENE 9.2 mph - N/A Snow Light Snow
10:37 AM 17.6 °F 8.2 °F 14.0 °F 86% 29.77 in 1.2 mi NE 6.9 mph - N/A Snow Light Snow
10:57 AM 17.6 °F 8.2 °F 14.0 °F 86% 29.76 in 1.8 mi NE 6.9 mph - N/A Snow Light Snow
11:16 AM 17.6 °F 9.3 °F 14.0 °F 86% 29.75 in 1.5 mi ENE 5.8 mph - N/A Snow Light Snow
11:37 AM 17.6 °F 8.2 °F 15.8 °F 93% 29.73 in 0.8 mi NE 6.9 mph - N/A Snow Light Snow
11:57 AM 17.6 °F 10.7 °F 15.8 °F 93% 29.72 in 1.0 mi ENE 4.6 mph - N/A Snow Light Snow
12:16 PM 17.6 °F 8.2 °F 15.8 °F 93% 29.69 in 0.5 mi NE 6.9 mph - N/A Snow Snow
12:37 PM 17.6 °F 6.4 °F 15.8 °F 93% 29.66 in 0.5 mi NE 9.2 mph - 0.01 in Snow Snow
12:57 PM 17.6 °F 8.2 °F 15.8 °F 93% 29.64 in 0.5 mi NE 6.9 mph - N/A Snow Snow
1:16 PM 17.6 °F 5.7 °F 15.8 °F 93% 29.62 in 1.2 mi NE 10.4 mph 17.3 mph N/A Snow Light Snow
1:37 PM 17.6 °F 6.4 °F 15.8 °F 93% 29.60 in 2.5 mi NE 9.2 mph 16.1 mph N/A Snow Light Snow
1:57 PM 17.6 °F 6.4 °F 15.8 °F 93% 29.60 in 2.0 mi NE 9.2 mph 20.7 mph N/A Snow Light Snow
2:16 PM 17.6 °F 7.3 °F 15.8 °F 93% 29.59 in 1.5 mi NE 8.1 mph 17.3 mph N/A Snow Light Snow
2:37 PM 17.6 °F 9.3 °F 15.8 °F 93% 29.61 in 0.8 mi NE 5.8 mph - N/A Snow Light Snow
2:57 PM 17.6 °F 6.4 °F 15.8 °F 93% 29.60 in 0.5 mi NNE 9.2 mph - N/A Snow Snow
3:16 PM 17.6 °F 8.2 °F 15.8 °F 93% 29.59 in 0.2 mi NE 6.9 mph - N/A Snow Snow
3:37 PM 17.6 °F 6.4 °F 15.8 °F 93% 29.57 in 0.2 mi NE 9.2 mph - N/A Snow Snow
3:56 PM 17.6 °F 10.7 °F 15.8 °F 93% 29.58 in 0.8 mi NE 4.6 mph - N/A Snow Light Snow
4:16 PM 17.6 °F 7.3 °F 15.8 °F 93% 29.55 in 0.8 mi NE 8.1 mph 18.4 mph 0.01 in Snow Light Snow
4:37 PM 17.6 °F 6.4 °F 15.8 °F 93% 29.52 in 1.2 mi NE 9.2 mph 18.4 mph 0.01 in Snow Light Snow
4:57 PM 17.6 °F 7.3 °F 14.0 °F 86% 29.51 in 1.2 mi NE 8.1 mph 17.3 mph N/A Snow Light Snow
5:16 PM 17.6 °F 8.2 °F 14.0 °F 86% 29.51 in 2.0 mi NNE 6.9 mph - N/A Snow Light Snow
5:37 PM 17.6 °F 9.3 °F 14.0 °F 86% 29.51 in 1.8 mi NNE 5.8 mph 18.4 mph N/A Snow Light Snow
5:56 PM 17.6 °F 7.3 °F 14.0 °F 86% 29.50 in 1.0 mi NNE 8.1 mph - N/A Snow Light Snow
6:16 PM 17.6 °F 10.7 °F 14.0 °F 86% 29.49 in 1.2 mi NNE 4.6 mph - N/A Snow Light Snow
6:37 PM 15.8 °F 10.2 °F 14.0 °F 93% 29.50 in 1.0 mi North 3.5 mph - 0.01 in Snow Light Snow
6:56 PM 15.8 °F 8.6 °F 14.0 °F 93% 29.49 in 1.5 mi NNE 4.6 mph - N/A Snow Light Snow
7:17 PM 15.8 °F 6.1 °F 14.0 °F 93% 29.47 in 1.5 mi NNE 6.9 mph - N/A Snow Light Snow
7:37 PM 15.8 °F 4.2 °F 12.2 °F 86% 29.45 in 5.0 mi NNE 9.2 mph - N/A Snow Light Snow
7:56 PM 15.8 °F 7.2 °F 12.2 °F 86% 29.48 in 4.0 mi North 5.8 mph - N/A Snow Light Snow
8:17 PM 15.8 °F 7.2 °F 12.2 °F 86% 29.47 in 4.0 mi North 5.8 mph - N/A Snow Light Snow
8:36 PM 15.8 °F 7.2 °F 12.2 °F 86% 29.46 in 10.0 mi North 5.8 mph - N/A   Overcast
8:57 PM 15.8 °F 8.6 °F 12.2 °F 86% 29.46 in 5.0 mi NNE 4.6 mph - N/A Snow Light Snow
9:16 PM 15.8 °F 6.1 °F 12.2 °F 86% 29.43 in 4.0 mi North 6.9 mph - N/A Snow Light Snow
9:36 PM 15.8 °F 7.2 °F 12.2 °F 86% 29.43 in 7.0 mi NNE 5.8 mph - 0.01 in Snow Light Snow
9:57 PM 15.8 °F 5.1 °F 12.2 °F 86% 29.42 in 3.0 mi NNE 8.1 mph - N/A Snow Light Snow
10:16 PM 15.8 °F 8.6 °F 12.2 °F 86% 29.43 in 2.0 mi NNE 4.6 mph - N/A Snow Light Snow
10:37 PM 15.8 °F - 12.2 °F 86% 29.41 in 3.0 mi Calm Calm - N/A Snow Light Snow
10:56 PM 15.8 °F - 12.2 °F 86% 29.41 in 3.0 mi Calm Calm - N/A Snow Light Snow
11:16 PM 15.8 °F 8.6 °F 12.2 °F 86% 29.41 in 2.5 mi North 4.6 mph - N/A Snow Light Snow
11:37 PM 15.8 °F 7.2 °F 12.2 °F 86% 29.41 in 1.8 mi North 5.8 mph - N/A Snow Light Snow
11:56 PM 15.8 °F 10.2 °F 12.2 °F 86% 29.40 in 1.8 mi NNE 3.5 mph - N/A Snow Light Snow